Location: T�chigga el Be�da
(16.4766°N, 9.3887°W)
Time: 10:21:38
(UTC+00:00)

Cosmos 2242 Rocket - Pass Details

Date: 27 February 2020
Orbit: 619 x 650 km, 82.5° (Epoch: 28 March)

Event Time Altitude Azimuth Distance (km) Brightness Sun altitude
Rises 19:04:29 0° 8° (N) 2,957 6.9 -5.7°
Reaches altitude 10° 19:06:53 10° 17° (NNE) 2,048 6.0 -6.3°
Maximum altitude 19:11:05 36° 84° (E) 1,024 4.2 -7.3°
Drops below altitude 10° 19:15:16 10° 151° (SSE) 2,046 6.0 -8.3°
Sets 19:17:39 0° 159° (SSE) 2,953 6.9 -8.9°
